Home   Weather   Daegu   Past weeks

Flag for South Korea Past Weather in Daegu, South Korea — Yesterday and Last 2 Weeks

Now
73 °F

More clouds than sun.


Feels Like: 68 °F
Forecast: 74 / 82 °F
Wind: 2 mph from Southeast

Location: Taegu Ab

Current Time: Aug 20, 2017 at 7:51:16 am

Latest Report: Aug 20, 2017 at 7:00 am


Visibility: 6 mi

Pressure: 29.86 "Hg

Humidity: 100%

Dew Point: 73 °F

Location of DaeguLocation

Past Weather in Daegu — Graph

°F

Daegu Temperature Yesterday

Maximum temperature yesterday: 88 °F (at 3:00 pm)
Minimum temperature yesterday: 73 °F (at 3:00 am)
Average temperature yesterday: 78 °F

High & Low Weather Summary for the Past Weeks

 TemperatureHumidityPressure
High100 °F (Aug 6, 4:00 pm)100% (Aug 10, 2:00 am)29.92 "Hg (Aug 10, 2:00 am)
Low68 °F (Aug 13, 4:00 am)37% (Aug 6, 5:00 pm)29.33 "Hg (Aug 16, 5:40 am)
Average79 °F80%29.65 "Hg
* Reported Aug 5 6:00 am — Aug 20 6:00 am, Daegu. Weather by CustomWeather, © 2017

Note: Actual official high and low records may vary slightly from our data, if they occured in-between our weather recording intervals... More about our weather records

Advertising

Daegu Weather History for the Previous 24 Hours

Scroll right to see more
 ConditionsComfort  
Time TempWeatherWind HumidityBarometerVisibility
6:00 am
Sun, Aug 20
73 °FLight rain. More clouds than sun.2 mph100%29.83 "Hg6 mi
5:45 am73 °FLight rain. Mostly cloudy.2 mph100%29.83 "HgN/A
5:00 am73 °FOvercast.2 mph100%29.83 "HgN/A
4:00 am73 °FOvercast.2 mph100%29.86 "HgN/A
3:00 am73 °FOvercast.2 mph100%29.86 "HgN/A
2:00 am75 °FOvercast.5 mph94%29.86 "HgN/A
1:00 am73 °FOvercast.3 mph100%29.86 "HgN/A
12:00 am75 °FOvercast.2 mph94%29.89 "HgN/A
11:00 pm
Sat, Aug 19
75 °FMostly cloudy.1 mph94%29.89 "HgN/A
10:00 pm75 °FLight rain. Mostly cloudy.5 mph94%29.89 "Hg6 mi
9:00 pm75 °FLight rain. Mostly cloudy.5 mph100%29.89 "Hg4 mi
8:40 pm75 °FLight rain. Mostly cloudy.5 mph100%29.89 "Hg4 mi
8:00 pm73 °FRain. Fog.3 mph100%29.89 "Hg2 mi
7:40 pm73 °FLight rain. Fog.3 mph100%29.89 "Hg2 mi
7:17 pm73 °FThunderstorms. Fog.2 mph100%29.89 "Hg2 mi
7:00 pm73 °FStrong thunderstorms. Fog.5 mph94%29.89 "Hg2 mi
6:00 pm79 °FThunderstorms. Mostly cloudy.9 mph84%29.86 "Hg5 mi
5:33 pm82 °FThunderstorms. Partly sunny.9 mph70%29.83 "HgN/A
5:15 pm82 °FLight rain. Partly sunny.9 mph70%29.83 "HgN/A
5:00 pm84 °FBroken clouds.9 mph66%29.83 "HgN/A
4:00 pm86 °FBroken clouds.3 mph62%29.83 "HgN/A
3:00 pm88 °FBroken clouds.5 mph59%29.83 "HgN/A
2:00 pm84 °FBroken clouds.6 mph66%29.86 "HgN/A
1:00 pm86 °FBroken clouds.6 mph66%29.86 "HgN/A
12:00 pm86 °FBroken clouds.7 mph66%29.89 "HgN/A
11:00 am82 °FBroken clouds.6 mph74%29.89 "HgN/A
10:00 am81 °FPartly sunny.5 mph79%29.92 "Hg6 mi
9:00 am79 °FBroken clouds.2 mph79%29.92 "Hg5 mi
8:00 am75 °FPartly sunny.3 mph89%29.89 "Hg5 mi
7:00 am73 °FBroken clouds.1 mph94%29.89 "Hg6 mi
Weather by CustomWeather, © 2017

See weather overviewHow to use our weather pages